Barksdale AFB, LA

4:59 AM CDT on April 25, 2018 (GMT -0500)
Barksdale Air Force Base

Weather History for KBAD - May, 2013

Change the Weather History Date:

Wednesday, May 15, 2013

  Actual Average Record
Temperature  
Mean Temperature 68 °F -  
Max Temperature 79 °F 81 °F 89 °F (2001)
Min Temperature 57 °F 61 °F 42 °F (2014)
Cooling Degree Days 2    
Growing Degree Days 18 (Base 50)    
Moisture  
Dew Point 62 °F    
Average Humidity 80    
Maximum Humidity 100    
Minimum Humidity 55    
Precipitation  
Precipitation 0.19 in - - ()
Sea Level Pressure  
Sea Level Pressure 30.06 in    
Wind  
Wind Speed 10 mph (SSE)    
Max Wind Speed 21 mph    
Max Gust Speed 25 mph    
Visibility 10 miles    
Events Rain , Thunderstorm    
Averages and records for this station are not official NWS values.
T = Trace of Precipitation, MM = Missing Value Source: NWS Daily Summary

Daily Weather History Graph

Daily Weather History Graph

Search for Another Location

Airport or City:

Astronomy

May. 15, 2013 Rise Set
Actual Time 6:16 AM CDT 8:06 PM CDT
Civil Twilight 5:49 AM CDT 8:33 PM CDT
Nautical Twilight 5:16 AM CDT 9:06 PM CDT
Astronomical Twilight 4:41 AM CDT 9:40 PM CDT
Moon 10:49 AM CDT (5/15) No Moon Set
Length of Visible Light 14h 44m
Length of Day
13h 50m
Waxing Crescent, 27% of the Moon is Illuminated
May 15
Waxing Crescent
May 17
First Quarter
May 24
Full
May 31
Last Quarter
Jun 8
New

Hourly Weather History & Observations

Time (CDT) Temp. Dew Point Humidity Pressure Visibility Wind Dir Wind Speed Gust Speed Precip Events Conditions
12:58 AM 65.8 °F 49.5 °F 55% 30.14 in 10.0 mi South 10.4 mph - N/A   Clear
1:58 AM 58.6 °F 50.4 °F 74% 30.13 in 10.0 mi SSE 9.2 mph - N/A   Clear
2:58 AM 61.7 °F 51.6 °F 69% 30.11 in 10.0 mi South 9.2 mph - N/A   Clear
3:58 AM 57.9 °F 51.6 °F 80% 30.13 in 10.0 mi SE 4.6 mph - N/A   Clear
4:18 AM 57.2 °F 53.6 °F 88% 30.12 in 10.0 mi SSE 5.8 mph - N/A   Mostly Cloudy
4:58 AM 61.9 °F 57.0 °F 84% 30.13 in 10.0 mi East 2.3 mph - N/A   Overcast
5:58 AM 66.0 °F 61.0 °F 84% 30.12 in 10.0 mi SSW 8.1 mph - N/A   Mostly Cloudy
6:18 AM 66.2 °F 60.8 °F 83% 30.11 in 10.0 mi South 10.4 mph - N/A   Scattered Clouds
6:58 AM 65.7 °F 61.7 °F 87% 30.12 in 10.0 mi SSW 10.4 mph - N/A   Clear
7:58 AM 68.0 °F 62.4 °F 82% 30.12 in 10.0 mi South 11.5 mph - N/A   Partly Cloudy
8:58 AM 70.3 °F 62.8 °F 77% 30.13 in 10.0 mi South 13.8 mph - N/A   Mostly Cloudy
9:10 AM 71.6 °F 62.6 °F 73% 30.11 in 10.0 mi SSW 10.4 mph - N/A   Mostly Cloudy
9:18 AM 71.6 °F 62.6 °F 73% 30.12 in 10.0 mi South 10.4 mph - N/A   Scattered Clouds
9:30 AM 71.6 °F 62.6 °F 73% 30.11 in 10.0 mi South 11.5 mph - N/A   Mostly Cloudy
9:58 AM 72.3 °F 62.1 °F 70% 30.13 in 10.0 mi South 15.0 mph - N/A   Mostly Cloudy
10:27 AM 73.4 °F 62.6 °F 69% 30.11 in 10.0 mi South 15.0 mph - N/A   Mostly Cloudy
10:58 AM 75.9 °F 62.6 °F 63% 30.11 in 10.0 mi South 13.8 mph 20.7 mph N/A   Clear
11:56 AM 78.8 °F 64.4 °F 61% 30.08 in 10.0 mi SSE 12.7 mph - N/A   Clear
12:28 PM 78.8 °F 62.6 °F 57% 30.07 in 10.0 mi SSW 13.8 mph - N/A   Partly Cloudy
12:58 PM 78.3 °F 62.8 °F 59% 30.07 in 10.0 mi SSW 15.0 mph 20.7 mph N/A   Partly Cloudy
1:58 PM 76.6 °F 60.8 °F 58% 30.07 in 10.0 mi South 13.8 mph - N/A   Mostly Cloudy
2:10 PM 75.2 °F 62.6 °F 65% 30.06 in 6.0 mi SSW 20.7 mph 25.3 mph N/A Rain Light Rain
2:32 PM 71.6 °F 64.4 °F 78% 30.05 in 10.0 mi South 12.7 mph - N/A   Mostly Cloudy
2:42 PM 71.6 °F 62.6 °F 73% 30.05 in 10.0 mi South 13.8 mph 21.9 mph N/A Rain Light Rain
2:58 PM 71.6 °F 64.6 °F 78% 30.05 in 10.0 mi South 12.7 mph - 0.02 in Rain Light Rain
3:58 PM 70.0 °F 65.1 °F 85% 30.03 in 10.0 mi South 12.7 mph - 0.02 in Rain Light Rain
4:01 PM 69.8 °F 64.4 °F 83% 30.01 in 10.0 mi South 13.8 mph - N/A Rain Light Rain
4:58 PM 69.1 °F 66.7 °F 92% 30.00 in 10.0 mi SSE 12.7 mph - 0.07 in Rain Light Rain
5:58 PM 68.0 °F 64.4 °F 88% 29.99 in 10.0 mi South 16.1 mph - 0.03 in Rain Light Rain
6:58 PM 66.7 °F 62.4 °F 86% 29.98 in 6.0 mi NW 3.5 mph - 0.01 in Rain Light Rain
7:13 PM 66.2 °F 64.4 °F 94% 29.97 in 10.0 mi East 4.6 mph - N/A   Overcast
7:30 PM 64.4 °F 64.4 °F 100% 29.97 in 10.0 mi ENE 2.3 mph - N/A Thunderstorm Overcast
7:47 PM 66.2 °F 66.2 °F 100% 29.97 in 10.0 mi NE 4.6 mph - N/A   Light Drizzle
7:58 PM 66.0 °F 64.9 °F 96% 29.98 in 7.0 mi ENE 6.9 mph - 0.01 in Rain Light Rain
8:58 PM 64.9 °F 63.1 °F 94% 29.98 in 10.0 mi SSE 5.8 mph - 0.03 in   Mostly Cloudy
9:58 PM 64.0 °F 62.2 °F 94% 29.97 in 10.0 mi ESE 3.5 mph - N/A   Mostly Cloudy
10:58 PM 64.6 °F 62.4 °F 93% 29.97 in 10.0 mi ESE 9.2 mph - N/A   Mostly Cloudy
11:48 PM 64.4 °F 64.4 °F 100% 29.95 in 10.0 mi ESE 10.4 mph - N/A   Mostly Cloudy
11:58 PM 65.1 °F 63.7 °F 95% 29.96 in 10.0 mi ESE 10.4 mph - N/A   Mostly Cloudy